Location: Unspecified
(0.0000°N, 0.0000°E)
Time: 21:41:34
(UTC+00:00)

ARIANE 6 R/B - Visible Passes

Search period start: 07 September 2024 00:00
Search period end: 17 September 2024 00:00
Orbit: 565 x 587 km, 62.0° (Epoch: 07 September)

Date Brightness Start Highest point End Pass type
(mag) Time Alt. Az. Time Alt. Az. Time Alt. Az.
14 Sep ? 19:06:43 10° S 19:08:57 23° SSE 19:08:57 23° SSE visible
15 Sep ? 19:09:31 10° SSW 19:13:39 58° ESE 19:14:14 52° ENE visible
16 Sep ? 19:12:44 10° SSW 19:16:55 70° WNW 19:19:48 19° NNE visible
